Terug naar catalogus

KUIPER-00600

ActiefCommunicatieLEO
NORAD 69284·PAYLOAD·🇺🇸 United States

Gelanceerd May 29, 2026 vanaf Vandenberg Space Force Base

Loading…

Volgende Passages (komende 24 uur)

TLE

VersSource: CelesTrak SupGP

Epoch: Sep 15, 2026, 03:38 UTC

1 69284C 26118T   26258.15144676  .00000894  00000+0  11708-3 0  2582
2 69284  51.8991 347.7632 0001690  31.7251 307.8856 14.79926990    15

Volg KUIPER-00600 in realtime met AllMySat

Download on the App Store